COSMOS 2251 DEB

Satellite information

Favourite Embed

Satellite Type and Status

DEBRISIN ORBIT

Key statistics

Satellite COSMOS 2251 DEB at a glance.

Uptime

11649

Days in orbit

Revolutions

≈ 14.4

Per day

Orbit

LEO

Low Earth Orbit

Inclination

74.0

Latest

Satellite identification and parameters

Extended collection of information and parameters for COSMOS 2251 DEB.

Object identification

Identified? True

Debris? True

Object name: COSMOS 2251 DEB

International designator: 1993-036BUW

Object number (NORAD): 39591

Object ID (CCSDS): 39591

Country: COMMONWEALTH OF INDEPENDENT STATES (CIS)

Current information (Y/N): Y

RCS size: SMALL

Orbital parameters

Period: 99.92 minutes

Inclination: 74.0202 deg

SMA: 7132.82 km

Apoapsis: 775.855 km

Periapsis: 733.515 km

RAAN: 292.7661 deg

Eccentricy: 0.002968

Argument of periapsis: 101.2217 deg

Mean anomaly: 270.0927 deg

Mean motion: 14.41155561 rev/day

Mean motion (dot): 0.00001872 rev/day2

B* drag term: 0.00058539 1/REarth

Two-line elements (TLE)

Creation date: May 8, 2025, 3:01 a.m.

Reference frame: TEME

Reference center: EARTH

Epoch: May 7, 2025, 5:29 p.m. UTC

TLE line 0: 0 COSMOS 2251 DEB

TLE line 1: 1 39591U 93036BUW 25127.72909350 .00001872 00000-0 58539-3 0 9991

TLE line 2: 2 39591 74.0202 292.7661 0029680 101.2217 270.0927 14.41155561586218

Live tracking on map

Real-time ground track for satellite COSMOS 2251 DEB.

In-orbit conjunctions

A list of the most updated potential collisions computed for object COSMOS 2251 DEB.

Target Orbit TCA Probability of collision Miss distance Type
ARIANE 1 DEB SSO 2025-05-05 18:22:57 0.0001831694 350.0 (m) DEBRIS

Associated space launch

Military communications satellite. Destroyed in a collision with Iridium 33.

COSMOS 2251 DEB was lifted into orbit during the mission ‘Kosmos-3M | Strela-2M 51’, on board a Kosmos-3M space rocket.

The launch took place on June 16, 1993, 4:17 a.m. from 132/1 (132L).

For more information about the launch, click the button.

Launch to space Kosmos-3M | Strela-2M 51
Kosmos-3M | Strela-2M 51

Agency: N/A

Status: Launch Successful

Launch date: June 16, 1993, 4:17 a.m. UTC

Rocket: Kosmos-3M

Launch pad: 132/1 (132L)

Location: Plesetsk Cosmodrome, Russian Federation

...

Latest news about this satellite

There are no fresh news available about this satellite. Check back as we update our databases every day.


Newsletter sign-up

Weekly statistics, charts and insights to help you stay on top of the space industry.